Lake Nimrod Weather Center

Moon Phase Calendar



Lake Nimrod Water Level
Online Cameras

 


      

Current Conditions in Ola
7/26/2021 3:34:08 PM

91°F
Feels Like 93
Clouds
Humidity
41%
Pressure
29.88"
Wind
4.3 mph (NE)
Dew Point
64°F
UV Index
5/10 (Moderate)
Visibility
6 mi

Hourly Forecast

Date & Time Mon, Jul 26
3:00 PM
Mon, Jul 26
4:00 PM
Mon, Jul 26
5:00 PM
Mon, Jul 26
6:00 PM
Mon, Jul 26
7:00 PM
Mon, Jul 26
8:00 PM
Mon, Jul 26
9:00 PM
Mon, Jul 26
10:00 PM
Mon, Jul 26
11:00 PM
Tue, Jul 27
12:00 AM
Tue, Jul 27
1:00 AM
Tue, Jul 27
2:00 AM
Tue, Jul 27
3:00 AM
Tue, Jul 27
4:00 AM
Tue, Jul 27
5:00 AM
Tue, Jul 27
6:00 AM
Tue, Jul 27
7:00 AM
Tue, Jul 27
8:00 AM
Tue, Jul 27
9:00 AM
Tue, Jul 27
10:00 AM
Tue, Jul 27
11:00 AM
Tue, Jul 27
12:00 PM
Tue, Jul 27
1:00 PM
Tue, Jul 27
2:00 PM
Tue, Jul 27
3:00 PM
Tue, Jul 27
4:00 PM
Tue, Jul 27
5:00 PM
Tue, Jul 27
6:00 PM
Tue, Jul 27
7:00 PM
Tue, Jul 27
8:00 PM
Tue, Jul 27
9:00 PM
Tue, Jul 27
10:00 PM
Tue, Jul 27
11:00 PM
Wed, Jul 28
12:00 AM
Wed, Jul 28
1:00 AM
Wed, Jul 28
2:00 AM
Wed, Jul 28
3:00 AM
Wed, Jul 28
4:00 AM
Wed, Jul 28
5:00 AM
Wed, Jul 28
6:00 AM
Wed, Jul 28
7:00 AM
Wed, Jul 28
8:00 AM
Wed, Jul 28
9:00 AM
Wed, Jul 28
10:00 AM
Wed, Jul 28
11:00 AM
Wed, Jul 28
12:00 PM
Wed, Jul 28
1:00 PM
Wed, Jul 28
2:00 PM
Condition
Clouds

Clouds

Clouds

Clouds

Clouds

Clouds

Clouds

Clouds

Rain

Rain

Clouds

Clouds

Clouds

Clouds

Clouds

Rain

Rain

Clouds

Clouds

Clouds

Clouds

Clouds

Clouds

Clouds

Clouds

Rain

Clouds

Clouds

Clouds

Clouds

Clouds

Clouds

Rain

Rain

Clouds

Clouds

Clouds

Clouds

Clouds

Clouds

Clouds

Clouds

Clouds

Clouds

Clouds

Clouds

Clouds

Clear
Temperature 92°F91°F91°F91°F89°F85°F81°F80°F78°F77°F77°F76°F76°F75°F75°F74°F75°F78°F82°F86°F90°F94°F96°F98°F97°F93°F88°F90°F90°F85°F83°F81°F80°F78°F78°F77°F77°F76°F76°F75°F76°F80°F83°F88°F92°F95°F97°F99°F
Feels Like 94°F93°F94°F95°F96°F92°F86°F80°F79°F79°F78°F77°F77°F76°F76°F75°F76°F80°F88°F94°F98°F102°F104°F105°F104°F101°F96°F99°F100°F93°F88°F86°F85°F80°F79°F79°F78°F78°F77°F77°F78°F80°F91°F97°F100°F101°F101°F101°F
Cloudiness 100%100%100%100%100%100%100%98%82%69%60%21%18%32%47%57%64%100%100%100%100%93%82%77%83%86%86%79%72%34%34%29%24%22%23%86%88%78%62%57%62%60%34%25%22%18%15%1%
Visibility 6 mi6 mi6 mi6 mi6 mi6 mi6 mi6 mi6 mi6 mi6 mi6 mi6 mi6 mi6 mi6 mi6 mi6 mi6 mi6 mi6 mi6 mi6 mi6 mi6 mi6 mi6 mi6 mi6 mi6 mi6 mi6 mi6 mi6 mi6 mi6 mi6 mi6 mi6 mi6 mi6 mi6 mi6 mi6 mi6 mi6 mi6 mi6 mi
Precipitation 6%6%6%6%7%12%24%22%25%41%40%31%31%31%24%52%53%2%0%0%0%0%0%0%0%20%0%0%0%3%3%11%28%48%48%0%0%0%0%0%0%0%0%0%1%0%0%0%
Humidity 40%41%43%48%56%69%77%78%80%81%81%82%83%83%84%88%88%83%76%67%57%49%44%40%41%52%64%59%62%71%73%75%79%85%86%87%89%91%92%94%93%86%77%65%55%45%37%32%
Dew Point 65°F64°F66°F68°F71°F73°F72°F72°F71°F70°F70°F70°F69°F69°F69°F70°F71°F72°F73°F73°F72°F71°F70°F69°F69°F72°F73°F73°F75°F74°F72°F72°F72°F72°F73°F72°F72°F72°F72°F72°F73°F74°F75°F74°F73°F70°F66°F63°F
Pressure 29.88"29.88"29.88"29.88"29.88"29.88"29.91"29.94"29.94"29.94"29.94"29.94"29.94"29.94"29.94"29.97"29.97"30"30"30"30"29.97"29.94"29.94"29.91"29.91"29.94"29.94"29.91"29.91"29.94"29.97"29.97"29.97"29.97"29.97"29.97"30"30"30"30.03"30.03"30.06"30.06"30.03"30.03"30"30"
Wind Speed 2.1 mph4.3 mph5.1 mph4.4 mph3.4 mph3 mph3 mph1.7 mph0.9 mph1.2 mph1.3 mph0.7 mph1.5 mph1.1 mph1.5 mph1.5 mph2.8 mph2.9 mph3.5 mph3.9 mph4 mph4 mph3.8 mph4.3 mph4.5 mph4.1 mph4.6 mph4.4 mph2.8 mph2.9 mph0.9 mph2.5 mph1.9 mph1.6 mph1.5 mph1.3 mph1.3 mph1.9 mph2.6 mph2.6 mph2.9 mph3.2 mph4.1 mph4.1 mph4.7 mph5.1 mph5.6 mph6 mph
Wind
Direction
38°
NE
55°
NE
76°
ENE
115°
ESE
135°
SE
155°
SSE
161°
SSE
175°
S
207°
SSW
120°
ESE
148°
SSE
139°
SE
137°
SE
109°
ESE
44°
NE
66°
ENE
95°
E
91°
E
82°
E
88°
E
97°
E
99°
E
90°
E
74°
ENE
63°
ENE
103°
ESE
140°
SE
143°
SE
141°
SE
154°
SSE
39°
NE
120°
ESE
138°
SE
124°
SE
137°
SE
93°
E
93°
E
102°
ESE
76°
ENE
81°
E
92°
E
73°
ENE
82°
E
86°
E
80°
E
78°
ENE
74°
ENE
73°
ENE

Daily Forecast

Date High Low Precip. Humidity
Today
Jul 26

Rain
94 °F
76 °F
85%
44%
Tuesday
Jul 27

Rain
98 °F
74 °F
53%
44%
Wednesday
Jul 28

Rain
99 °F
75 °F
48%
37%
Thursday
Jul 29

Clear
102 °F
74 °F
0%
37%
Friday
Jul 30

Clouds
103 °F
76 °F
0%
36%
Saturday
Jul 31

Clouds
104 °F
77 °F
0%
31%
Sunday
Aug 1

Rain
101 °F
76 °F
89%
33%
Monday
Aug 2

Rain
78 °F
70 °F
100%
94%
Tuesday
Aug 3

Clouds
79 °F
66 °F
22%
60%
Wednesday
Aug 4

Clouds
84 °F
63 °F
0%
39%
Thursday
Aug 5

Clouds
84 °F
65 °F
7%
48%
Friday
Aug 6

Clouds
92 °F
64 °F
0%
42%
Saturday
Aug 7

Clear
94 °F
68 °F
0%
43%
Sunday
Aug 8

Clouds
98 °F
71 °F
35%
41%
Monday
Aug 9

Rain
93 °F
72 °F
99%
46%
Tuesday
Aug 10

Rain
95 °F
73 °F
77%
44%

Temperature 8-14 Day Outlook



Precipitation 8-14 Day Outlook




Quick Links
Lake Nimrod News
Lake Nimrod Photos
Lake Nimrod Videos




About Us
Contact Us
Site Map
Search Site
Advertise With Us
   
Nimrod.LakesOnline.com
THE LAKE NIMROD WEBSITE

Copyright 2021, Lakes Online
Privacy    |    Legal